Location: *
(10.4782°N, 67.2163°W)
Time: 10:30:26
(UTC+00:00)

OAO 1 - Pass Details

Date: 23 May 2024
Orbit: 772 x 782 km, 35.0° (Epoch: 20 June)

Event Time Altitude Azimuth Distance (km) Brightness Sun altitude
Exits shadow 08:37:06 28° 294° (WNW) 1,401 5.5 -20.8°
Maximum altitude 08:39:58 71° 217° (SW) 811 4.4 -20.2°
Drops below altitude 10° 08:45:23 10° 133° (SE) 2,306 7.2 -19.0°
Sets 08:47:52 0° 131° (SE) 3,235 8.0 -18.4°
